"startDT [UTC]","vpos","CH4 [ppm]","stdev(CH4) [ppm]","CO2 [ppm]","stdev(CO2) [ppm]","H2O_reported [%]","stdev(H2O_reported)","CavityPressure [torr]","CavityTemp [C]","OutletValve","CH4_dry [ppm]","CO2_dry [ppm]","DasTemp [C]","EtalonTemp [C]","WarmBoxTemp [C]","MPVPosition","T_ECpre [C]","T_EC1 [C]","T_EC2 [C]","p_inlet [hPa]","p_in [hPa]","p_out [hPa]","T_inlet [C]","RH_inlet [%]","dwpt_inlet [C]","T_vent [C]","RH_vent [%]","dwpt_vent [C]","flow_vent [l min-1]","flow_inlet [l min-1]","dwpt_sample [C]","T_room [C]"
2016-08-07 00:00:00,3.0,1.87605,0.00778,396.243,3.367,0.2178,0.3425,139.942,45.000,31253.43247,1.88145,397.266,37.301,45.069,45.000,0.00,0.09,-272.78,-272.85,-16,434,-940,27.1,22.3,3.7,26.8,22.9,3.9,5.73,1.62,5.7,30.1
2016-08-07 00:01:00,3.0,1.87622,0.00042,397.104,0.064,0.0351,0.0021,139.997,45.000,31202.50140,1.87686,397.271,37.290,45.069,45.000,0.00,0.10,-272.78,-272.84,-15,433,-940,27.1,22.4,3.7,26.8,23.0,3.9,5.73,1.88,5.7,30.2
2016-08-07 00:02:00,3.0,1.87619,0.00039,397.330,0.054,0.0312,0.0027,139.998,45.000,31189.63499,1.87676,397.477,37.294,45.069,45.000,0.00,0.09,-272.77,-272.85,-16,434,-941,27.1,22.3,3.7,26.8,23.0,3.9,5.73,1.61,5.7,30.2
2016-08-07 00:03:00,3.0,1.87632,0.00040,397.432,0.036,0.0250,0.0026,140.002,45.000,31181.71390,1.87681,397.552,37.266,45.069,45.000,0.00,0.09,-272.78,-272.86,-16,434,-941,27.1,22.2,3.7,26.8,22.9,3.8,5.73,1.81,5.7,30.1
2016-08-07 00:04:00,3.0,1.87612,0.00039,397.452,0.021,0.0192,0.0023,140.002,45.000,31175.16972,1.87647,397.544,37.285,45.069,45.000,0.00,0.09,-272.78,-272.84,-15,434,-941,27.1,22.4,3.7,26.8,23.0,3.9,5.73,1.80,5.7,30.2
2016-08-07 00:05:00,3.0,1.87590,0.00032,397.473,0.031,0.0159,0.0023,139.999,45.000,31169.36066,1.87623,397.550,37.261,45.069,45.000,0.00,0.10,-272.77,-272.84,-16,434,-941,27.1,22.4,3.8,26.8,23.1,4.0,5.73,1.62,5.7,30.2
2016-08-07 00:06:00,3.0,1.87636,0.00039,397.505,0.057,0.0131,0.0022,139.998,45.000,31161.76805,1.87658,397.566,37.251,45.069,45.000,0.00,0.09,-272.79,-272.85,-15,434,-941,27.1,22.2,3.6,26.8,22.9,3.9,5.73,1.89,5.8,30.1
2016-08-07 00:07:00,3.0,1.87643,0.00036,397.499,0.032,0.0105,0.0018,140.000,45.000,31158.88599,1.87661,397.549,37.250,45.069,45.000,0.00,0.09,-272.79,-272.84,-16,434,-941,27.1,22.0,3.5,26.8,22.7,3.7,5.73,1.67,5.8,30.2
2016-08-07 00:08:00,3.0,1.87668,0.00047,397.539,0.028,0.0086,0.0015,139.999,45.000,31153.78504,1.87683,397.579,37.249,45.069,45.000,0.00,0.10,-272.77,-272.84,-15,434,-941,27.1,22.3,3.7,26.8,22.9,3.8,5.73,1.71,5.7,30.1
2016-08-07 00:09:00,3.0,1.87657,0.00024,397.520,0.029,0.0075,0.0022,140.000,45.000,31152.41485,1.87674,397.557,37.250,45.069,45.000,0.00,0.09,-272.78,-272.84,-16,434,-941,27.1,23.0,4.2,26.8,23.5,4.2,5.73,1.88,5.7,30.1
2016-08-07 00:10:00,3.0,1.87667,0.00026,397.534,0.030,0.0076,0.0021,139.998,45.000,31150.70618,1.87679,397.571,37.246,45.069,45.000,0.00,0.09,-272.78,-272.84,-15,435,-941,27.1,23.2,4.3,26.8,23.9,4.4,5.73,1.60,5.7,30.0
2016-08-07 00:11:00,3.0,1.87655,0.00041,397.550,0.028,0.0061,0.0019,140.002,45.000,31147.86190,1.87666,397.578,37.223,45.069,45.000,0.00,0.09,-272.77,-272.84,-15,435,-941,27.1,22.9,4.1,26.8,23.7,4.3,5.73,1.83,5.8,30.1
2016-08-07 00:12:00,3.0,1.87672,0.00038,397.550,0.032,0.0057,0.0022,140.000,45.000,31146.48080,1.87682,397.578,37.204,45.069,45.000,0.00,0.09,-272.78,-272.84,-16,435,-941,27.1,22.9,4.1,26.8,23.5,4.2,5.73,1.78,5.7,30.0
2016-08-07 00:13:00,3.0,1.87662,0.00038,397.565,0.028,0.0046,0.0022,139.998,45.000,31145.70166,1.87674,397.588,37.196,45.069,45.000,0.00,0.09,-272.78,-272.85,-15,435,-941,27.1,23.1,4.2,26.8,23.7,4.4,5.73,1.62,5.7,29.9
2016-08-07 00:14:00,3.0,1.87634,0.00029,397.565,0.036,0.0051,0.0024,140.000,45.000,31147.14284,1.87641,397.589,37.196,45.069,45.001,0.00,0.09,-272.78,-272.84,-16,435,-941,27.1,22.9,4.1,26.8,23.6,4.3,5.73,1.89,5.7,29.9
2016-08-07 00:15:00,3.0,1.87659,0.00037,397.553,0.026,0.0038,0.0015,139.999,45.000,31145.65759,1.87666,397.571,37.202,45.069,45.000,0.00,0.10,-272.77,-272.83,-15,436,-941,27.1,22.7,4.0,26.8,23.5,4.2,5.73,1.66,5.7,29.9
2016-08-07 00:16:00,3.0,1.87671,0.00031,397.539,0.036,0.0038,0.0023,139.999,45.000,31146.62738,1.87676,397.559,37.207,45.069,45.000,0.00,0.09,-272.78,-272.85,-16,436,-941,27.1,22.6,3.9,26.8,23.3,4.1,5.73,1.73,5.7,29.9
2016-08-07 00:17:00,3.0,1.87668,0.00043,397.553,0.038,0.0038,0.0019,140.001,45.000,31146.77508,1.87676,397.571,37.191,45.069,45.000,0.00,0.09,-272.78,-272.85,-15,436,-941,27.1,22.6,4.0,26.8,23.3,4.1,5.73,1.86,5.7,29.8
2016-08-07 00:18:00,3.0,1.87671,0.00035,397.541,0.039,0.0030,0.0016,140.000,45.000,31147.74521,1.87677,397.555,37.187,45.069,45.000,0.00,0.10,-272.77,-272.84,-16,436,-941,27.1,22.6,3.9,26.8,23.4,4.2,5.73,1.60,5.7,29.9
2016-08-07 00:19:00,3.0,1.87661,0.00040,397.555,0.026,0.0023,0.0019,140.000,45.000,31147.44745,1.87665,397.566,37.185,45.069,45.000,0.00,0.09,-272.78,-272.84,-16,436,-941,27.1,22.4,3.8,26.8,23.1,4.0,5.73,1.85,5.7,29.9
2016-08-07 00:20:00,0.0,1.89885,0.00700,390.050,3.079,0.8676,0.3437,140.054,45.000,31826.99372,1.91435,394.266,37.185,45.069,45.000,0.00,0.09,-272.79,-272.85,-17,535,-940,27.1,22.4,3.8,26.8,23.2,4.1,5.73,1.81,5.7,30.0
2016-08-07 00:21:00,0.0,1.89982,0.00034,388.277,0.110,1.0383,0.0058,139.999,45.000,31871.24672,1.91988,393.291,37.185,45.069,45.000,0.00,0.10,-272.78,-272.84,-17,536,-939,27.1,22.4,3.8,26.9,23.2,4.1,5.73,1.79,5.7,30.1
2016-08-07 00:22:00,0.0,1.89933,0.00039,388.484,0.134,1.0383,0.0061,140.001,45.000,31887.30612,1.91942,393.498,37.186,45.069,45.000,0.00,0.10,-272.78,-272.84,-17,536,-939,27.1,22.2,3.7,26.9,23.1,4.0,5.73,1.81,5.8,29.9
2016-08-07 00:23:00,0.0,1.89918,0.00032,388.492,0.072,1.0373,0.0037,140.001,45.000,31897.73932,1.91922,393.503,37.192,45.069,45.000,0.00,0.09,-272.78,-272.85,-17,536,-939,27.1,22.2,3.7,26.9,23.0,3.9,5.73,1.71,5.7,29.9
2016-08-07 00:24:00,0.0,1.89916,0.00035,388.412,0.088,1.0387,0.0024,140.001,45.000,31906.98446,1.91924,393.431,37.201,45.069,45.000,0.00,0.09,-272.78,-272.84,-17,537,-939,27.1,22.2,3.7,26.9,23.0,3.9,5.73,1.89,5.7,29.8
2016-08-07 00:25:00,0.0,1.89936,0.00050,388.195,0.133,1.0406,0.0067,140.002,45.000,31912.39416,1.91947,393.220,37.196,45.069,45.000,0.00,0.09,-272.77,-272.84,-17,536,-939,27.2,22.3,3.8,26.9,23.0,3.9,5.73,1.65,5.7,29.9
2016-08-07 00:26:00,0.0,1.89914,0.00032,388.367,0.078,1.0394,0.0049,140.002,45.000,31918.82796,1.91922,393.385,37.199,45.069,45.000,0.00,0.09,-272.79,-272.84,-18,537,-939,27.2,22.1,3.7,26.9,23.0,3.9,5.73,1.94,5.7,29.9
2016-08-07 00:27:00,0.0,1.89924,0.00032,388.310,0.106,1.0424,0.0040,139.999,45.000,31922.63197,1.91939,393.346,37.193,45.069,45.000,0.00,0.09,-272.78,-272.84,-17,537,-939,27.2,22.2,3.7,26.9,22.9,3.9,5.73,1.62,5.7,30.1
2016-08-07 00:28:00,0.0,1.89899,0.00039,388.200,0.089,1.0493,0.0050,140.001,45.000,31928.63230,1.91930,393.269,37.188,45.069,45.000,0.00,0.09,-272.78,-272.84,-18,537,-939,27.2,22.4,3.8,26.9,23.1,4.0,5.73,1.95,5.7,30.0
2016-08-07 00:29:00,0.0,1.89894,0.00050,388.205,0.097,1.0489,0.0035,140.000,45.000,31931.25784,1.91917,393.273,37.188,45.069,45.000,0.00,0.09,-272.78,-272.84,-16,537,-940,27.1,22.3,3.8,26.9,23.1,4.0,5.73,1.62,5.7,30.0
2016-08-07 00:30:00,0.0,1.89905,0.00038,388.196,0.135,1.0485,0.0039,140.001,45.000,31935.25760,1.91934,393.258,37.187,45.069,45.000,0.00,0.09,-272.78,-272.85,-18,537,-939,27.2,22.3,3.8,26.9,23.1,4.0,5.73,1.92,5.7,29.9
2016-08-07 00:31:00,0.0,1.89885,0.00039,388.165,0.059,1.0478,0.0037,140.000,45.000,31938.69205,1.91911,393.224,37.153,45.069,45.000,0.00,0.09,-272.77,-272.84,-16,537,-939,27.2,22.3,3.8,26.9,23.1,4.0,5.73,1.67,5.7,30.0
2016-08-07 00:32:00,0.0,1.89888,0.00037,388.256,0.089,1.0478,0.0026,140.000,45.000,31941.74830,1.91912,393.315,37.132,45.069,45.000,0.00,0.09,-272.78,-272.84,-18,537,-939,27.2,22.3,3.8,26.8,23.1,4.0,5.73,1.87,5.7,30.1
2016-08-07 00:33:00,0.0,1.89885,0.00037,388.252,0.128,1.0488,0.0030,139.999,45.000,31942.44397,1.91913,393.318,37.126,45.069,45.000,0.00,0.09,-272.79,-272.84,-16,537,-939,27.1,22.3,3.8,26.8,23.1,4.0,5.73,1.73,5.7,30.1
2016-08-07 00:34:00,0.0,1.89857,0.00044,388.292,0.235,1.0430,0.0044,140.001,45.000,31945.03715,1.91874,393.328,37.127,45.070,45.000,0.00,0.09,-272.78,-272.84,-18,537,-939,27.1,22.2,3.7,26.8,23.0,4.0,5.73,1.79,5.7,30.0
2016-08-07 00:35:00,0.0,1.89870,0.00032,388.079,0.210,1.0353,0.0068,139.999,45.000,31944.69771,1.91871,393.081,37.125,45.069,45.000,0.00,0.10,-272.78,-272.83,-16,537,-939,27.1,22.1,3.6,26.8,22.8,3.8,5.73,1.81,5.7,30.0
2016-08-07 00:36:00,0.0,1.89853,0.00036,388.111,0.131,1.0379,0.0025,140.000,45.000,31947.03730,1.91858,393.122,37.147,45.069,45.000,0.00,0.09,-272.78,-272.84,-18,537,-939,27.2,22.1,3.6,26.8,22.8,3.8,5.73,1.71,5.7,30.0
2016-08-07 00:37:00,0.0,1.89890,0.00040,388.285,0.118,1.0315,0.0051,140.003,45.000,31949.25213,1.91881,393.261,37.150,45.069,45.000,0.00,0.09,-272.79,-272.84,-16,537,-939,27.2,21.9,3.5,26.9,22.7,3.8,5.73,1.89,5.7,30.0
2016-08-07 00:38:00,0.0,1.89907,0.00029,388.325,0.079,1.0279,0.0036,139.999,45.000,31947.79161,1.91890,393.285,37.162,45.069,45.000,0.00,0.09,-272.77,-272.84,-18,537,-939,27.1,21.9,3.5,26.8,22.6,3.7,5.73,1.65,5.7,30.1
2016-08-07 00:39:00,0.0,1.89929,0.00034,388.251,0.179,1.0307,0.0079,140.001,45.000,31949.55439,1.91918,393.230,37.160,45.069,45.000,0.00,0.09,-272.78,-272.84,-17,537,-939,27.1,22.0,3.5,26.8,22.6,3.7,5.73,1.93,5.7,30.0
2016-08-07 00:40:00,0.0,1.89922,0.00047,388.047,0.095,1.0524,0.0032,139.997,45.000,31948.65600,1.91959,393.130,37.165,45.069,45.000,0.00,0.09,-272.78,-272.84,-18,537,-939,27.1,22.4,3.8,26.8,23.0,4.0,5.73,1.62,5.7,30.0
2016-08-07 00:41:00,0.0,1.89934,0.00038,388.163,0.212,1.0537,0.0064,140.001,45.000,31949.25313,1.91974,393.244,37.166,45.069,45.000,0.00,0.09,-272.78,-272.84,-17,537,-939,27.1,22.4,3.8,26.8,23.2,4.1,5.73,1.94,5.7,30.0
2016-08-07 00:42:00,0.0,1.89958,0.00049,388.446,0.114,1.0341,0.0057,140.000,45.000,31948.50911,1.91955,393.442,37.151,45.069,45.000,0.00,0.10,-272.77,-272.84,-18,537,-939,27.1,22.0,3.5,26.8,22.8,3.8,5.73,1.62,5.7,29.9
2016-08-07 00:43:00,0.0,1.89955,0.00034,388.302,0.203,1.0337,0.0077,139.998,45.000,31948.84596,1.91952,393.299,37.136,45.069,45.000,0.00,0.09,-272.78,-272.85,-17,537,-939,27.1,22.1,3.6,26.8,22.7,3.7,5.73,1.93,5.7,29.9
2016-08-07 00:44:00,0.0,1.89951,0.00038,388.309,0.127,1.0463,0.0061,140.000,45.000,31947.34570,1.91974,393.356,37.126,45.069,45.000,0.00,0.10,-272.77,-272.85,-17,537,-939,27.1,22.2,3.7,26.8,23.0,3.9,5.73,1.66,5.7,29.9
2016-08-07 00:45:00,0.0,1.89947,0.00037,388.396,0.097,1.0404,0.0034,140.000,45.000,31949.94629,1.91956,393.424,37.125,45.069,45.000,0.00,0.09,-272.77,-272.84,-17,537,-940,27.1,22.1,3.6,26.8,22.9,3.8,5.73,1.86,5.7,29.9
2016-08-07 00:46:00,0.0,1.89959,0.00040,388.223,0.173,1.0451,0.0094,139.999,45.000,31948.75075,1.91980,393.272,37.125,45.069,45.000,0.00,0.09,-272.78,-272.84,-17,537,-939,27.1,22.2,3.7,26.8,22.9,3.9,5.73,1.73,5.7,30.0
2016-08-07 00:47:00,0.0,1.89949,0.00064,388.238,0.081,1.0402,0.0052,139.999,45.000,31949.30793,1.91964,393.259,37.127,45.069,45.000,0.00,0.09,-272.78,-272.85,-17,537,-939,27.1,22.2,3.7,26.8,22.9,3.9,5.73,1.79,5.7,30.0
2016-08-07 00:48:00,0.0,1.89952,0.00041,388.112,0.220,1.0400,0.0043,140.002,45.000,31952.07051,1.91960,393.134,37.129,45.069,45.000,0.00,0.10,-272.78,-272.84,-17,537,-939,27.1,22.2,3.6,26.8,22.8,3.8,5.73,1.81,5.7,29.9
2016-08-07 00:49:00,0.0,1.89972,0.00037,388.268,0.084,1.0454,0.0028,139.998,45.000,31948.13278,1.91991,393.315,37.127,45.069,45.000,0.00,0.10,-272.78,-272.84,-18,537,-939,27.1,22.3,3.7,26.8,23.0,3.9,5.73,1.71,5.7,29.9
2016-08-07 00:50:00,0.0,1.89954,0.00029,388.121,0.137,1.0478,0.0031,139.999,45.000,31948.59638,1.91981,393.187,37.134,45.069,45.000,0.00,0.09,-272.79,-272.85,-17,537,-939,27.1,22.3,3.7,26.8,23.0,3.9,5.73,1.89,5.7,30.0
2016-08-07 00:51:00,0.0,1.89954,0.00039,387.972,0.125,1.0457,0.0032,140.003,45.000,31951.88505,1.91975,393.023,37.126,45.069,45.000,0.00,0.09,-272.77,-272.84,-18,537,-939,27.1,22.3,3.7,26.8,23.0,3.9,5.73,1.64,5.7,29.8
2016-08-07 00:52:00,0.0,1.89906,0.00045,388.090,0.217,1.0436,0.0036,139.999,45.000,31949.79588,1.91924,393.117,37.127,45.069,45.000,0.00,0.09,-272.77,-272.83,-16,537,-939,27.1,22.2,3.7,26.8,23.0,3.9,5.73,1.93,5.7,29.8
2016-08-07 00:53:00,0.0,1.89885,0.00035,388.232,0.099,1.0401,0.0027,140.001,45.000,31950.28846,1.91897,393.258,37.131,45.069,45.000,0.00,0.09,-272.78,-272.84,-18,537,-940,27.1,22.2,3.6,26.8,22.9,3.8,5.73,1.62,5.7,29.9
2016-08-07 00:54:00,0.0,1.89865,0.00037,388.072,0.115,1.0431,0.0039,140.001,45.000,31950.15477,1.91881,393.106,37.148,45.069,45.000,0.00,0.09,-272.79,-272.84,-16,537,-940,27.1,22.2,3.6,26.8,22.9,3.9,5.73,1.95,5.7,30.0
2016-08-07 00:55:00,0.0,1.89853,0.00039,388.059,0.085,1.0405,0.0040,140.000,45.000,31949.52637,1.91862,393.080,37.174,45.069,45.000,0.00,0.10,-272.77,-272.84,-18,537,-939,27.1,22.2,3.6,26.8,22.9,3.8,5.73,1.62,5.7,30.0
2016-08-07 00:56:00,0.0,1.89822,0.00030,388.251,0.085,1.0344,0.0041,139.999,45.000,31949.81531,1.91819,393.243,37.187,45.069,45.000,0.00,0.09,-272.78,-272.85,-16,537,-939,27.1,22.0,3.5,26.8,22.8,3.8,5.73,1.92,5.7,30.1
2016-08-07 00:57:00,0.0,1.89809,0.00049,387.954,0.138,1.0401,0.0060,140.000,45.000,31952.22534,1.91816,392.976,37.187,45.069,44.999,0.00,0.09,-272.78,-272.85,-18,537,-940,27.1,22.2,3.6,26.8,22.8,3.8,5.73,1.67,5.7,30.0
2016-08-07 00:58:00,0.0,1.89804,0.00043,388.113,0.100,1.0373,0.0044,140.000,45.000,31951.46063,1.91810,393.119,37.166,45.069,45.000,0.00,0.09,-272.77,-272.84,-16,537,-939,27.1,22.1,3.6,26.8,22.9,3.8,5.73,1.86,5.7,30.1
2016-08-07 00:59:00,0.0,1.89806,0.00034,388.030,0.115,1.0423,0.0041,140.002,45.000,31952.66608,1.91821,393.060,37.135,45.069,45.000,0.00,0.10,-272.77,-272.84,-18,537,-939,27.1,22.2,3.6,26.8,22.9,3.8,5.73,1.74,5.7,30.1
2016-08-07 01:00:00,0.0,1.89815,0.00037,388.074,0.202,1.0334,0.0055,140.000,45.000,31950.82213,1.91810,393.068,37.128,45.069,45.000,0.00,0.09,-272.78,-272.85,-16,537,-939,27.0,22.1,3.5,26.7,22.8,3.7,5.73,1.78,5.7,30.1
2016-08-07 01:01:00,0.0,1.89758,0.00038,388.045,0.182,1.0413,0.0060,140.001,45.000,31951.55033,1.91768,393.063,37.125,45.069,45.000,0.00,0.09,-272.79,-272.84,-18,537,-939,27.1,22.2,3.6,26.8,22.9,3.8,5.73,1.82,5.7,30.1
2016-08-07 01:02:00,0.0,1.89783,0.00034,387.901,0.176,1.0369,0.0070,140.000,45.000,31950.80943,1.91785,392.908,37.125,45.069,45.000,0.00,0.10,-272.77,-272.84,-16,537,-940,27.0,22.1,3.6,26.7,22.8,3.8,5.73,1.70,5.7,30.1
2016-08-07 01:03:00,0.0,1.89756,0.00048,387.722,0.301,1.0420,0.0085,140.000,45.000,31950.06477,1.91769,392.745,37.126,45.069,45.000,0.00,0.09,-272.79,-272.84,-18,537,-939,27.1,22.2,3.6,26.7,22.9,3.8,5.73,1.90,5.7,30.1
2016-08-07 01:04:00,0.0,1.89796,0.00064,387.871,0.258,1.0251,0.0091,140.000,45.000,31949.00422,1.91776,392.811,37.124,45.069,45.000,0.00,0.09,-272.78,-272.85,-16,537,-939,27.0,21.9,3.4,26.7,22.6,3.6,5.73,1.64,5.7,30.1
2016-08-07 01:05:00,0.0,1.89764,0.00025,388.410,0.289,1.0230,0.0032,139.997,45.000,31949.67172,1.91737,393.349,37.125,45.069,45.000,0.00,0.09,-272.78,-272.84,-18,537,-939,27.0,21.8,3.3,26.7,22.6,3.6,5.73,1.94,5.7,30.0
2016-08-07 01:06:00,0.0,1.89736,0.00047,387.981,0.239,1.0208,0.0120,140.002,45.000,31950.64160,1.91708,392.912,37.125,45.069,45.000,0.00,0.10,-272.77,-272.84,-17,537,-939,27.0,21.8,3.4,26.7,22.5,3.5,5.73,1.62,5.7,30.0
2016-08-07 01:07:00,0.0,1.89746,0.00038,387.907,0.114,1.0280,0.0050,139.999,45.000,31950.41821,1.91726,392.858,37.125,45.069,45.000,0.00,0.09,-272.79,-272.85,-18,537,-939,27.0,21.9,3.4,26.7,22.7,3.6,5.73,1.94,5.7,30.1
2016-08-07 01:08:00,0.0,1.89778,0.00036,387.844,0.176,1.0298,0.0076,140.000,45.000,31949.60866,1.91768,392.818,37.121,45.069,45.000,0.00,0.09,-272.77,-272.84,-17,537,-939,27.0,22.0,3.5,26.7,22.6,3.6,5.73,1.63,5.7,30.1
2016-08-07 01:09:00,0.0,1.89716,0.00048,387.786,0.151,1.0297,0.0095,140.000,45.000,31948.84086,1.91704,392.746,37.090,45.069,45.000,0.00,0.10,-272.77,-272.84,-17,537,-939,27.0,21.9,3.4,26.7,22.7,3.7,5.73,1.91,5.7,30.0
2016-08-07 01:10:00,0.0,1.89743,0.00060,387.929,0.163,1.0065,0.0148,140.000,45.000,31949.76079,1.91680,392.784,37.066,45.069,45.000,0.00,0.09,-272.78,-272.85,-17,537,-940,27.0,21.5,3.1,26.7,22.4,3.5,5.73,1.68,5.7,30.0
2016-08-07 01:11:00,0.0,1.89761,0.00043,387.783,0.151,1.0127,0.0063,139.999,45.000,31947.64718,1.91717,392.663,37.064,45.069,45.000,0.00,0.09,-272.78,-272.85,-17,537,-939,27.0,21.6,3.2,26.7,22.3,3.4,5.73,1.84,5.7,30.1
2016-08-07 01:12:00,0.0,1.89702,0.00048,387.328,0.236,1.0384,0.0070,140.001,45.000,31949.82395,1.91708,392.325,37.068,45.069,45.000,0.00,0.10,-272.77,-272.84,-17,537,-939,27.0,22.1,3.5,26.7,22.7,3.7,5.73,1.76,5.7,30.2
2016-08-07 01:13:00,0.0,1.89718,0.00043,388.030,0.083,1.0099,0.0092,139.999,45.000,31951.08464,1.91663,392.901,37.065,45.069,45.000,0.00,0.09,-272.78,-272.85,-17,537,-939,27.0,21.5,3.1,26.7,22.5,3.5,5.73,1.76,5.7,30.2
2016-08-07 01:14:00,0.0,1.89751,0.00043,387.661,0.125,1.0240,0.0041,139.999,45.000,31951.33311,1.91727,392.601,37.067,45.069,45.000,0.00,0.09,-272.79,-272.85,-18,537,-939,27.0,21.9,3.4,26.7,22.5,3.5,5.73,1.85,5.7,30.2
2016-08-07 01:15:00,0.0,1.89741,0.00036,387.654,0.150,1.0284,0.0027,140.000,45.000,31949.02290,1.91726,392.602,37.065,45.069,45.000,0.00,0.10,-272.78,-272.84,-17,537,-939,27.0,21.9,3.4,26.7,22.7,3.6,5.73,1.68,5.7,30.1
2016-08-07 01:16:00,0.0,1.89749,0.00051,387.710,0.161,1.0261,0.0043,140.000,45.000,31951.04228,1.91729,392.662,37.087,45.069,45.000,0.00,0.09,-272.78,-272.84,-18,537,-939,27.0,21.9,3.4,26.7,22.6,3.6,5.73,1.91,5.7,30.1
2016-08-07 01:17:00,0.0,1.89779,0.00032,387.590,0.127,1.0336,0.0038,139.997,45.000,31949.13990,1.91772,392.562,37.076,45.069,45.000,0.00,0.09,-272.78,-272.85,-16,537,-939,27.0,22.1,3.5,26.7,22.7,3.7,5.73,1.63,5.7,30.1
2016-08-07 01:18:00,0.0,1.89834,0.00045,387.857,0.130,1.0199,0.0082,140.000,45.000,31949.76230,1.91801,392.779,37.078,45.069,45.000,0.00,0.09,-272.78,-272.84,-18,537,-940,27.0,21.8,3.3,26.7,22.6,3.6,5.73,1.94,5.7,30.1
2016-08-07 01:19:00,0.0,1.89810,0.00039,387.510,0.073,1.0339,0.0047,140.003,45.000,31949.86786,1.91806,392.490,37.067,45.069,45.000,0.00,0.09,-272.77,-272.84,-16,537,-939,27.0,22.1,3.5,26.7,22.7,3.7,5.73,1.62,5.7,30.0
2016-08-07 01:20:00,0.0,1.89838,0.00052,387.636,0.131,1.0328,0.0056,139.997,45.000,31948.62522,1.91829,392.615,37.063,45.069,45.000,0.00,0.09,-272.78,-272.84,-18,537,-939,27.0,22.1,3.5,26.7,22.8,3.7,5.73,1.95,5.7,30.1
2016-08-07 01:21:00,0.0,1.89901,0.00031,387.763,0.051,1.0225,0.0044,140.000,45.000,31949.01159,1.91878,392.689,37.063,45.069,45.000,0.00,0.09,-272.78,-272.84,-16,537,-939,27.0,21.8,3.3,26.7,22.6,3.6,5.73,1.63,5.7,30.1
2016-08-07 01:22:00,0.0,1.89885,0.00044,387.724,0.142,1.0209,0.0039,140.000,45.000,31947.67711,1.91857,392.646,37.063,45.069,45.000,0.00,0.09,-272.78,-272.84,-18,537,-939,27.0,21.9,3.4,26.7,22.6,3.6,5.73,1.91,5.7,30.0
2016-08-07 01:23:00,0.0,1.89843,0.00042,387.531,0.194,1.0319,0.0077,140.000,45.000,31949.36411,1.91834,392.503,37.065,45.069,45.000,0.00,0.09,-272.78,-272.84,-16,537,-939,27.0,22.1,3.5,26.7,22.7,3.7,5.73,1.68,5.7,30.0
2016-08-07 01:24:00,0.0,1.89875,0.00039,387.581,0.087,1.0317,0.0036,139.999,45.000,31947.11714,1.91868,392.552,37.065,45.069,45.000,0.00,0.09,-272.78,-272.86,-18,537,-939,27.0,22.1,3.5,26.7,22.8,3.7,5.73,1.84,5.7,30.1
2016-08-07 01:25:00,0.0,1.89874,0.00042,387.692,0.133,1.0319,0.0061,140.001,45.000,31947.45735,1.91865,392.662,37.068,45.069,45.000,0.00,0.10,-272.78,-272.84,-16,537,-939,27.0,22.1,3.5,26.7,22.8,3.7,5.73,1.77,5.7,30.1
2016-08-07 01:26:00,0.0,1.89858,0.00041,387.525,0.223,1.0417,0.0060,140.000,45.000,31945.46907,1.91871,392.552,37.074,45.069,45.000,0.00,0.09,-272.77,-272.84,-18,537,-939,27.0,22.3,3.6,26.7,23.0,3.8,5.73,1.75,5.7,30.3
2016-08-07 01:27:00,0.0,1.89858,0.00038,387.244,0.176,1.0547,0.0033,140.001,45.000,31943.79995,1.91899,392.323,37.086,45.069,45.000,0.00,0.09,-272.79,-272.85,-16,537,-939,27.0,22.6,3.8,26.7,23.2,4.0,5.73,1.86,5.7,30.2
2016-08-07 01:28:00,0.0,1.89843,0.00046,387.328,0.158,1.0463,0.0055,140.002,45.000,31945.56847,1.91862,392.372,37.078,45.069,45.000,0.00,0.10,-272.78,-272.85,-18,537,-939,27.0,22.4,3.7,26.7,23.1,3.9,5.73,1.67,5.7,30.3
2016-08-07 01:29:00,0.0,1.89852,0.00041,387.472,0.159,1.0422,0.0077,140.001,45.000,31943.98929,1.91867,392.494,37.069,45.069,45.000,0.00,0.09,-272.79,-272.84,-16,537,-939,27.0,22.3,3.6,26.7,23.1,3.9,5.73,1.93,5.7,30.4
2016-08-07 01:30:00,0.0,1.89842,0.00047,387.451,0.215,1.0420,0.0096,139.998,45.000,31946.35709,1.91854,392.474,37.064,45.069,45.000,0.00,0.09,-272.78,-272.85,-18,537,-939,27.0,22.3,3.6,26.7,23.1,3.8,5.73,1.62,5.7,30.2
2016-08-07 01:31:00,0.0,1.89843,0.00043,387.520,0.271,1.0401,0.0086,140.002,45.000,31947.89407,1.91855,392.528,37.062,45.069,45.000,0.00,0.09,-272.79,-272.85,-16,537,-939,27.0,22.2,3.6,26.7,23.0,3.8,5.73,1.95,5.7,30.3
2016-08-07 01:32:00,0.0,1.89835,0.00039,387.582,0.105,1.0298,0.0105,140.001,45.000,31946.14528,1.91821,392.548,37.063,45.069,45.000,0.00,0.10,-272.78,-272.84,-18,537,-939,27.0,22.1,3.5,26.7,22.8,3.7,5.73,1.63,5.7,30.4
2016-08-07 01:33:00,0.0,1.89826,0.00060,387.248,0.172,1.0421,0.0075,140.000,45.000,31945.66817,1.91839,392.272,37.063,45.069,45.000,0.00,0.09,-272.78,-272.84,-17,537,-939,26.9,22.3,3.6,26.7,23.0,3.8,5.73,1.91,5.7,30.3
2016-08-07 01:34:00,0.0,1.89821,0.00041,387.596,0.223,1.0359,0.0114,139.999,45.000,31945.81820,1.91822,392.579,37.062,45.069,45.000,0.00,0.09,-272.78,-272.84,-18,537,-940,27.0,22.1,3.5,26.7,23.0,3.8,5.73,1.70,5.7,30.4
2016-08-07 01:35:00,0.0,1.89866,0.00032,387.593,0.241,1.0244,0.0113,140.002,45.000,31945.53483,1.91843,392.538,37.063,45.069,45.000,0.00,0.09,-272.77,-272.84,-17,537,-939,27.0,22.0,3.4,26.7,22.6,3.6,5.73,1.82,5.7,30.4
2016-08-07 01:36:00,0.0,1.89827,0.00038,387.790,0.231,1.0237,0.0155,140.001,45.000,31946.73570,1.91804,392.716,37.063,45.069,45.000,0.00,0.09,-272.78,-272.84,-18,537,-939,26.9,21.9,3.3,26.7,22.8,3.6,5.73,1.80,5.7,30.3
2016-08-07 01:37:00,0.0,1.89831,0.00043,387.431,0.169,1.0394,0.0095,139.999,45.000,31945.68903,1.91840,392.446,37.061,45.069,45.000,0.00,0.09,-272.78,-272.85,-17,537,-939,27.0,22.3,3.6,26.7,22.8,3.7,5.73,1.71,5.7,30.3
2016-08-07 01:38:00,0.0,1.89832,0.00049,387.636,0.174,1.0405,0.0079,140.000,45.000,31944.55293,1.91842,392.647,37.062,45.069,45.000,0.00,0.09,-272.78,-272.85,-17,537,-940,26.9,22.3,3.6,26.6,23.1,3.8,5.73,1.89,5.7,30.4
2016-08-07 01:39:00,0.0,1.89829,0.00035,387.357,0.271,1.0446,0.0092,140.003,45.000,31946.02153,1.91846,392.399,37.051,45.069,45.000,0.00,0.10,-272.77,-272.85,-17,537,-939,26.9,22.4,3.7,26.7,23.1,3.8,5.73,1.64,5.7,30.4
2016-08-07 01:40:00,0.0,1.89815,0.00038,387.367,0.163,1.0648,0.0057,140.001,45.000,31947.10534,1.91875,392.493,37.054,45.069,45.000,0.00,0.09,-272.78,-272.85,-17,537,-939,26.9,22.8,3.9,26.6,23.5,4.1,5.73,1.94,5.7,30.4
2016-08-07 01:41:00,0.0,1.89845,0.00045,387.507,0.174,1.0479,0.0047,139.997,45.000,31943.85904,1.91868,392.556,37.047,45.069,45.000,0.00,0.09,-272.78,-272.85,-17,537,-939,26.9,22.4,3.7,26.6,23.3,4.0,5.73,1.62,5.7,30.3
2016-08-07 01:42:00,0.0,1.89873,0.00034,387.540,0.153,1.0434,0.0072,140.001,45.000,31943.05701,1.91889,392.570,37.059,45.069,45.000,0.00,0.10,-272.78,-272.84,-17,537,-939,26.9,22.4,3.6,26.7,23.1,3.9,5.73,1.94,5.7,30.3
2016-08-07 01:43:00,0.0,1.89862,0.00029,387.743,0.074,1.0387,0.0038,140.000,45.000,31945.72169,1.91871,392.755,37.047,45.069,45.000,0.00,0.10,-272.78,-272.84,-17,537,-939,26.9,22.3,3.6,26.6,23.0,3.8,5.73,1.65,5.7,30.3
2016-08-07 01:44:00,0.0,1.89845,0.00046,387.478,0.175,1.0487,0.0067,140.001,45.000,31944.79848,1.91871,392.529,37.061,45.069,45.000,0.00,0.09,-272.79,-272.85,-17,537,-939,26.9,22.5,3.7,26.6,23.2,3.9,5.73,1.88,5.7,30.3
2016-08-07 01:45:00,0.0,1.89882,0.00037,387.792,0.122,1.0354,0.0083,139.998,45.000,31942.31667,1.91880,392.787,37.063,45.069,45.000,0.00,0.10,-272.78,-272.84,-17,537,-939,26.9,22.2,3.5,26.6,23.1,3.8,5.73,1.73,5.7,30.2
2016-08-07 01:46:00,0.0,1.89859,0.00048,387.747,0.143,1.0326,0.0040,140.001,45.000,31941.01388,1.91854,392.722,37.063,45.069,45.000,0.00,0.09,-272.77,-272.84,-17,537,-939,26.9,22.1,3.5,26.6,22.9,3.7,5.73,1.78,5.7,30.3